Time,TemperatureF,DewpointF,PressureIn,WindDirection,WindDirectionDegrees,WindSpeedMPH,WindSpeedGustMPH,Humidity,HourlyPrecipIn,Conditions,Clouds,dailyrainin,SoftwareType,DateUTC
2013-01-07 00:03:00,41.0,30.0,30.21,NW,304,2.0,-999.0,64,-99.99,,,-99.99,,2013-01-07 05:03:00,
2013-01-07 00:12:00,41.0,30.0,30.21,NW,304,2.0,-999.0,64,-99.99,,,-99.99,,2013-01-07 05:12:00,
2013-01-07 00:22:00,40.0,29.0,30.21,NW,311,1.0,-999.0,65,-99.99,,,-99.99,,2013-01-07 05:22:00,
2013-01-07 00:33:00,40.0,29.0,30.21,NW,311,1.0,-999.0,65,-99.99,,,-99.99,,2013-01-07 05:33:00,
2013-01-07 00:42:00,40.0,29.0,30.21,NW,311,1.0,-999.0,65,-99.99,,,-99.99,,2013-01-07 05:42:00,
2013-01-07 00:52:00,40.0,30.0,30.22,SW,216,1.0,-999.0,66,-99.99,,,-99.99,,2013-01-07 05:52:00,
2013-01-07 01:02:00,40.0,30.0,30.22,NW,317,0.0,-999.0,66,-99.99,,,-99.99,,2013-01-07 06:02:00,
2013-01-07 01:12:00,40.0,30.0,30.22,NW,317,0.0,-999.0,66,-99.99,,,-99.99,,2013-01-07 06:12:00,
2013-01-07 01:22:00,39.0,29.0,30.22,WSW,250,0.0,-999.0,66,-99.99,,,-99.99,,2013-01-07 06:22:00,
2013-01-07 01:32:00,40.0,29.0,30.21,WNW,293,4.0,-999.0,64,-99.99,,,-99.99,,2013-01-07 06:32:00,
2013-01-07 01:42:00,40.0,29.0,30.21,WNW,293,4.0,-999.0,64,-99.99,,,-99.99,,2013-01-07 06:42:00,
2013-01-07 01:52:00,39.0,28.0,30.21,ESE,102,2.0,-999.0,64,-99.99,,,-99.99,,2013-01-07 06:52:00,
2013-01-07 02:02:00,39.0,28.0,30.22,NW,312,1.0,-999.0,65,-99.99,,,-99.99,,2013-01-07 07:02:00,
2013-01-07 02:12:00,39.0,28.0,30.22,NW,312,1.0,-999.0,65,-99.99,,,-99.99,,2013-01-07 07:12:00,
2013-01-07 02:22:00,38.0,27.0,30.22,NW,307,1.0,-999.0,64,-99.99,,,-99.99,,2013-01-07 07:22:00,
2013-01-07 02:33:00,38.0,27.0,30.23,WNW,302,0.0,-999.0,65,-99.99,,,-99.99,,2013-01-07 07:33:00,
2013-01-07 02:42:00,38.0,27.0,30.23,WNW,302,0.0,-999.0,65,-99.99,,,-99.99,,2013-01-07 07:42:00,
2013-01-07 02:52:00,37.0,26.0,30.24,NW,321,0.0,-999.0,64,-99.99,,,-99.99,,2013-01-07 07:52:00,
2013-01-07 03:03:00,37.0,26.0,30.24,NW,313,1.0,-999.0,64,-99.99,,,-99.99,,2013-01-07 08:03:00,
2013-01-07 03:12:00,37.0,26.0,30.24,NW,313,1.0,-999.0,64,-99.99,,,-99.99,,2013-01-07 08:12:00,
2013-01-07 03:22:00,37.0,26.0,30.26,North,351,0.0,-999.0,65,-99.99,,,-99.99,,2013-01-07 08:22:00,
2013-01-07 03:33:00,35.0,26.0,30.27,South,173,0.0,-999.0,68,-99.99,,,-99.99,,2013-01-07 08:33:00,
2013-01-07 03:42:00,35.0,26.0,30.27,South,173,0.0,-999.0,68,-99.99,,,-99.99,,2013-01-07 08:42:00,
2013-01-07 03:52:00,35.0,26.0,30.27,WNW,300,0.0,-999.0,70,-99.99,,,-99.99,,2013-01-07 08:52:00,
2013-01-07 04:02:00,36.0,26.0,30.27,NW,309,2.0,-999.0,67,-99.99,,,-99.99,,2013-01-07 09:02:00,
2013-01-07 04:12:00,36.0,26.0,30.27,NW,309,2.0,-999.0,67,-99.99,,,-99.99,,2013-01-07 09:12:00,
2013-01-07 04:22:00,36.0,26.0,30.27,WNW,298,1.0,-999.0,67,-99.99,,,-99.99,,2013-01-07 09:22:00,
2013-01-07 04:32:00,35.0,26.0,30.27,NNE,15,2.0,-999.0,68,-99.99,,,-99.99,,2013-01-07 09:32:00,
2013-01-07 04:42:00,35.0,26.0,30.27,NNE,15,2.0,-999.0,68,-99.99,,,-99.99,,2013-01-07 09:42:00,
2013-01-07 04:52:00,35.0,26.0,30.27,NE,41,0.0,-999.0,68,-99.99,,,-99.99,,2013-01-07 09:52:00,
2013-01-07 05:02:00,34.0,25.0,30.27,WSW,237,0.0,-999.0,69,-99.99,,,-99.99,,2013-01-07 10:02:00,
2013-01-07 05:12:00,34.0,25.0,30.27,WSW,237,0.0,-999.0,69,-99.99,,,-99.99,,2013-01-07 10:12:00,
2013-01-07 05:22:00,34.0,25.0,30.27,WSW,237,0.0,-999.0,70,-99.99,,,-99.99,,2013-01-07 10:22:00,
2013-01-07 05:32:00,33.0,25.0,30.28,NW,319,0.0,-999.0,71,-99.99,,,-99.99,,2013-01-07 10:32:00,
2013-01-07 05:42:00,33.0,25.0,30.28,NW,319,0.0,-999.0,71,-99.99,,,-99.99,,2013-01-07 10:42:00,
2013-01-07 05:52:00,35.0,26.0,30.27,NW,307,3.0,-999.0,69,-99.99,,,-99.99,,2013-01-07 10:52:00,
2013-01-07 06:02:00,35.0,26.0,30.28,NW,322,2.0,-999.0,69,-99.99,,,-99.99,,2013-01-07 11:02:00,
2013-01-07 06:12:00,35.0,26.0,30.28,NW,322,2.0,-999.0,69,-99.99,,,-99.99,,2013-01-07 11:12:00,
2013-01-07 06:23:00,35.0,26.0,30.28,East,80,2.0,-999.0,69,-99.99,,,-99.99,,2013-01-07 11:23:00,
2013-01-07 06:33:00,34.0,25.0,30.28,NNW,337,3.0,-999.0,69,-99.99,,,-99.99,,2013-01-07 11:33:00,
2013-01-07 06:43:00,34.0,25.0,30.28,NNW,337,3.0,-999.0,69,-99.99,,,-99.99,,2013-01-07 11:43:00,
2013-01-07 06:53:00,35.0,25.0,30.30,West,278,2.0,-999.0,67,-99.99,,,-99.99,,2013-01-07 11:53:00,
2013-01-07 07:03:00,34.0,25.0,30.31,WNW,284,0.0,-999.0,68,-99.99,,,-99.99,,2013-01-07 12:03:00,
2013-01-07 07:12:00,33.0,24.0,30.32,WNW,284,0.0,-999.0,70,-99.99,,,-99.99,,2013-01-07 12:12:00,
2013-01-07 07:22:00,33.0,24.0,30.32,WNW,284,0.0,-999.0,70,-99.99,,,-99.99,,2013-01-07 12:22:00,
2013-01-07 07:33:00,32.0,24.0,30.33,WNW,284,0.0,-999.0,72,-99.99,,,-99.99,,2013-01-07 12:33:00,
2013-01-07 07:43:00,32.0,24.0,30.33,WNW,284,0.0,-999.0,72,-99.99,,,-99.99,,2013-01-07 12:43:00,
2013-01-07 07:52:00,31.0,24.0,30.34,WNW,284,0.0,-999.0,74,-99.99,,,-99.99,,2013-01-07 12:52:00,
2013-01-07 08:03:00,31.0,24.0,30.35,WNW,299,0.0,-999.0,75,-99.99,,,-99.99,,2013-01-07 13:03:00,
2013-01-07 08:12:00,31.0,24.0,30.35,WNW,299,0.0,-999.0,75,-99.99,,,-99.99,,2013-01-07 13:12:00,
2013-01-07 08:23:00,31.0,24.0,30.37,WNW,299,0.0,-999.0,76,-99.99,,,-99.99,,2013-01-07 13:23:00,
2013-01-07 08:33:00,31.0,24.0,30.38,SW,225,0.0,-999.0,76,-99.99,,,-99.99,,2013-01-07 13:33:00,
2013-01-07 08:43:00,31.0,24.0,30.38,SW,225,0.0,-999.0,76,-99.99,,,-99.99,,2013-01-07 13:43:00,
2013-01-07 08:52:00,32.0,25.0,30.39,SW,225,0.0,-999.0,76,-99.99,,,-99.99,,2013-01-07 13:52:00,
2013-01-07 09:03:00,33.0,26.0,30.40,SW,225,0.0,-999.0,74,-99.99,,,-99.99,,2013-01-07 14:03:00,
2013-01-07 09:13:00,33.0,26.0,30.40,SW,225,0.0,-999.0,74,-99.99,,,-99.99,,2013-01-07 14:13:00,
2013-01-07 09:23:00,34.0,26.0,30.41,SW,217,0.0,-999.0,73,-99.99,,,-99.99,,2013-01-07 14:23:00,
2013-01-07 09:33:00,34.0,26.0,30.41,SSW,196,0.0,-999.0,72,-99.99,,,-99.99,,2013-01-07 14:33:00,
2013-01-07 09:43:00,34.0,26.0,30.41,SSW,196,0.0,-999.0,72,-99.99,,,-99.99,,2013-01-07 14:43:00,
2013-01-07 09:53:00,35.0,26.0,30.42,SSE,166,0.0,-999.0,70,-99.99,,,-99.99,,2013-01-07 14:53:00,
2013-01-07 10:03:00,36.0,27.0,30.43,SSE,150,0.0,-999.0,69,-99.99,,,-99.99,,2013-01-07 15:03:00,
2013-01-07 10:12:00,36.0,27.0,30.43,SSE,150,0.0,-999.0,69,-99.99,,,-99.99,,2013-01-07 15:12:00,
2013-01-07 10:23:00,37.0,27.0,30.43,SSE,155,0.0,-999.0,67,-99.99,,,-99.99,,2013-01-07 15:23:00,
2013-01-07 10:33:00,39.0,28.0,30.44,SSE,164,0.0,-999.0,65,-99.99,,,-99.99,,2013-01-07 15:33:00,
2013-01-07 10:43:00,39.0,28.0,30.44,SSE,164,0.0,-999.0,65,-99.99,,,-99.99,,2013-01-07 15:43:00,
2013-01-07 10:53:00,39.0,27.0,30.44,South,171,0.0,-999.0,63,-99.99,,,-99.99,,2013-01-07 15:53:00,
2013-01-07 11:03:00,41.0,28.0,30.44,South,171,0.0,-999.0,59,-99.99,,,-99.99,,2013-01-07 16:03:00,
2013-01-07 11:12:00,41.0,28.0,30.44,South,171,0.0,-999.0,59,-99.99,,,-99.99,,2013-01-07 16:12:00,
2013-01-07 11:23:00,42.0,29.0,30.45,SSE,150,0.0,-999.0,59,-99.99,,,-99.99,,2013-01-07 16:23:00,
2013-01-07 11:33:00,43.0,29.0,30.44,SSW,205,0.0,-999.0,57,-99.99,,,-99.99,,2013-01-07 16:33:00,
2013-01-07 11:43:00,43.0,29.0,30.44,SSW,205,0.0,-999.0,57,-99.99,,,-99.99,,2013-01-07 16:43:00,
2013-01-07 11:53:00,44.0,28.0,30.44,South,171,0.0,-999.0,54,-99.99,,,-99.99,,2013-01-07 16:53:00,
2013-01-07 12:03:00,44.0,28.0,30.43,SSW,192,1.0,-999.0,54,-99.99,,,-99.99,,2013-01-07 17:03:00,
2013-01-07 12:12:00,44.0,28.0,30.43,SSW,192,1.0,-999.0,54,-99.99,,,-99.99,,2013-01-07 17:12:00,
2013-01-07 12:23:00,44.0,29.0,30.42,South,180,0.0,-999.0,56,-99.99,,,-99.99,,2013-01-07 17:23:00,
2013-01-07 12:33:00,44.0,28.0,30.42,SSW,204,0.0,-999.0,54,-99.99,,,-99.99,,2013-01-07 17:33:00,
2013-01-07 12:42:00,44.0,28.0,30.42,SSW,204,0.0,-999.0,54,-99.99,,,-99.99,,2013-01-07 17:42:00,
2013-01-07 12:53:00,45.0,28.0,30.41,SSW,205,1.0,-999.0,51,-99.99,,,-99.99,,2013-01-07 17:53:00,
2013-01-07 13:03:00,46.0,28.0,30.40,SE,135,0.0,-999.0,50,-99.99,,,-99.99,,2013-01-07 18:03:00,
2013-01-07 13:13:00,46.0,28.0,30.40,SE,135,0.0,-999.0,50,-99.99,,,-99.99,,2013-01-07 18:13:00,
2013-01-07 13:23:00,47.0,29.0,30.40,SE,130,0.0,-999.0,49,-99.99,,,-99.99,,2013-01-07 18:23:00,
2013-01-07 13:33:00,48.0,28.0,30.39,SSW,205,0.0,-999.0,46,-99.99,,,-99.99,,2013-01-07 18:33:00,
2013-01-07 13:43:00,48.0,28.0,30.39,SSW,205,0.0,-999.0,46,-99.99,,,-99.99,,2013-01-07 18:43:00,
2013-01-07 13:52:00,48.0,29.0,30.39,ESE,123,0.0,-999.0,47,-99.99,,,-99.99,,2013-01-07 18:52:00,
2013-01-07 14:03:00,48.0,28.0,30.39,West,271,1.0,-999.0,45,-99.99,,,-99.99,,2013-01-07 19:03:00,
2013-01-07 14:12:00,48.0,28.0,30.39,West,271,1.0,-999.0,45,-99.99,,,-99.99,,2013-01-07 19:12:00,
2013-01-07 14:23:00,48.0,28.0,30.39,SW,219,0.0,-999.0,45,-99.99,,,-99.99,,2013-01-07 19:23:00,
2013-01-07 14:33:00,49.0,28.0,30.38,South,180,1.0,-999.0,44,-99.99,,,-99.99,,2013-01-07 19:33:00,
2013-01-07 14:43:00,49.0,28.0,30.38,South,180,1.0,-999.0,44,-99.99,,,-99.99,,2013-01-07 19:43:00,
2013-01-07 14:53:00,49.0,29.0,30.38,South,190,1.0,-999.0,45,-99.99,,,-99.99,,2013-01-07 19:53:00,
2013-01-07 15:03:00,49.0,29.0,30.38,South,187,0.0,-999.0,45,-99.99,,,-99.99,,2013-01-07 20:03:00,
2013-01-07 15:12:00,49.0,29.0,30.38,South,187,0.0,-999.0,45,-99.99,,,-99.99,,2013-01-07 20:12:00,
2013-01-07 15:23:00,49.0,27.0,30.38,SSE,151,0.0,-999.0,43,-99.99,,,-99.99,,2013-01-07 20:23:00,
2013-01-07 15:33:00,49.0,28.0,30.38,South,184,0.0,-999.0,44,-99.99,,,-99.99,,2013-01-07 20:33:00,
2013-01-07 15:42:00,49.0,28.0,30.38,South,184,0.0,-999.0,44,-99.99,,,-99.99,,2013-01-07 20:42:00,
2013-01-07 15:52:00,49.0,28.0,30.38,South,184,0.0,-999.0,44,-99.99,,,-99.99,,2013-01-07 20:52:00,
2013-01-07 16:03:00,49.0,29.0,30.39,SSE,157,0.0,-999.0,46,-99.99,,,-99.99,,2013-01-07 21:03:00,
2013-01-07 16:12:00,49.0,29.0,30.39,SSE,157,0.0,-999.0,46,-99.99,,,-99.99,,2013-01-07 21:12:00,
2013-01-07 16:23:00,48.0,28.0,30.40,SE,144,0.0,-999.0,46,-99.99,,,-99.99,,2013-01-07 21:23:00,
2013-01-07 16:33:00,48.0,28.0,30.40,SSE,159,0.0,-999.0,45,-99.99,,,-99.99,,2013-01-07 21:33:00,
2013-01-07 16:43:00,48.0,28.0,30.40,SSE,159,0.0,-999.0,45,-99.99,,,-99.99,,2013-01-07 21:43:00,
2013-01-07 16:52:00,47.0,28.0,30.39,SSW,204,0.0,-999.0,47,-99.99,,,-99.99,,2013-01-07 21:52:00,
2013-01-07 17:03:00,47.0,28.0,30.40,SSW,204,0.0,-999.0,48,-99.99,,,-99.99,,2013-01-07 22:03:00,
2013-01-07 17:12:00,47.0,28.0,30.40,SSW,204,0.0,-999.0,48,-99.99,,,-99.99,,2013-01-07 22:12:00,
2013-01-07 17:23:00,46.0,29.0,30.40,SSW,204,0.0,-999.0,52,-99.99,,,-99.99,,2013-01-07 22:23:00,
2013-01-07 17:33:00,44.0,28.0,30.40,SSW,204,0.0,-999.0,52,-99.99,,,-99.99,,2013-01-07 22:33:00,
2013-01-07 17:43:00,44.0,28.0,30.40,SSW,204,0.0,-999.0,52,-99.99,,,-99.99,,2013-01-07 22:43:00,
2013-01-07 17:53:00,43.0,28.0,30.41,SSW,204,0.0,-999.0,55,-99.99,,,-99.99,,2013-01-07 22:53:00,
2013-01-07 18:02:00,41.0,27.0,30.41,SSW,205,0.0,-999.0,57,-99.99,,,-99.99,,2013-01-07 23:02:00,
2013-01-07 18:12:00,41.0,27.0,30.41,SSW,205,0.0,-999.0,57,-99.99,,,-99.99,,2013-01-07 23:12:00,
2013-01-07 18:22:00,40.0,26.0,30.42,SSW,205,0.0,-999.0,58,-99.99,,,-99.99,,2013-01-07 23:22:00,
2013-01-07 18:33:00,40.0,27.0,30.42,SSW,205,0.0,-999.0,59,-99.99,,,-99.99,,2013-01-07 23:33:00,
2013-01-07 18:43:00,40.0,27.0,30.42,SSW,205,0.0,-999.0,59,-99.99,,,-99.99,,2013-01-07 23:43:00,
2013-01-07 18:53:00,40.0,27.0,30.43,SSW,205,0.0,-999.0,60,-99.99,,,-99.99,,2013-01-07 23:53:00,
2013-01-07 19:03:00,40.0,27.0,30.43,SSW,205,0.0,-999.0,60,-99.99,,,-99.99,,2013-01-08 00:03:00,
2013-01-07 19:12:00,40.0,27.0,30.43,SSW,205,0.0,-999.0,60,-99.99,,,-99.99,,2013-01-08 00:12:00,
2013-01-07 19:23:00,40.0,27.0,30.44,SSW,205,0.0,-999.0,60,-99.99,,,-99.99,,2013-01-08 00:23:00,
2013-01-07 19:33:00,40.0,28.0,30.44,SSW,205,0.0,-999.0,61,-99.99,,,-99.99,,2013-01-08 00:33:00,
2013-01-07 19:42:00,40.0,28.0,30.44,SSW,205,0.0,-999.0,61,-99.99,,,-99.99,,2013-01-08 00:42:00,
2013-01-07 19:52:00,39.0,27.0,30.44,SSW,205,0.0,-999.0,62,-99.99,,,-99.99,,2013-01-08 00:52:00,
2013-01-07 20:03:00,39.0,27.0,30.44,SSW,205,0.0,-999.0,62,-99.99,,,-99.99,,2013-01-08 01:03:00,
2013-01-07 20:12:00,39.0,27.0,30.44,SSW,205,0.0,-999.0,62,-99.99,,,-99.99,,2013-01-08 01:12:00,
2013-01-07 20:22:00,38.0,27.0,30.44,SSW,205,0.0,-999.0,63,-99.99,,,-99.99,,2013-01-08 01:22:00,
2013-01-07 20:33:00,38.0,27.0,30.44,SSW,205,0.0,-999.0,63,-99.99,,,-99.99,,2013-01-08 01:33:00,
2013-01-07 20:42:00,38.0,27.0,30.44,SSW,205,0.0,-999.0,63,-99.99,,,-99.99,,2013-01-08 01:42:00,
2013-01-07 20:52:00,38.0,27.0,30.44,SSW,205,0.0,-999.0,63,-99.99,,,-99.99,,2013-01-08 01:52:00,
2013-01-07 21:02:00,38.0,27.0,30.43,SSW,205,0.0,-999.0,64,-99.99,,,-99.99,,2013-01-08 02:02:00,
2013-01-07 21:12:00,38.0,27.0,30.43,SSW,205,0.0,-999.0,64,-99.99,,,-99.99,,2013-01-08 02:12:00,
2013-01-07 21:22:00,38.0,27.0,30.43,SSW,205,0.0,-999.0,64,-99.99,,,-99.99,,2013-01-08 02:22:00,
2013-01-07 21:33:00,38.0,27.0,30.42,SSW,205,0.0,-999.0,64,-99.99,,,-99.99,,2013-01-08 02:33:00,
2013-01-07 21:42:00,38.0,27.0,30.42,SSW,205,0.0,-999.0,64,-99.99,,,-99.99,,2013-01-08 02:42:00,
2013-01-07 21:53:00,38.0,27.0,30.42,SSW,205,0.0,-999.0,64,-99.99,,,-99.99,,2013-01-08 02:53:00,
2013-01-07 22:03:00,38.0,27.0,30.42,SSW,205,0.0,-999.0,64,-99.99,,,-99.99,,2013-01-08 03:03:00,
2013-01-07 22:12:00,38.0,27.0,30.42,SSW,205,0.0,-999.0,64,-99.99,,,-99.99,,2013-01-08 03:12:00,
2013-01-07 22:22:00,37.0,26.0,30.42,SSW,205,0.0,-999.0,65,-99.99,,,-99.99,,2013-01-08 03:22:00,
2013-01-07 22:32:00,37.0,26.0,30.41,SSW,205,0.0,-999.0,65,-99.99,,,-99.99,,2013-01-08 03:32:00,
2013-01-07 22:43:00,37.0,26.0,30.41,SSW,205,0.0,-999.0,65,-99.99,,,-99.99,,2013-01-08 03:43:00,
2013-01-07 22:53:00,37.0,26.0,30.42,SSW,205,0.0,-999.0,65,-99.99,,,-99.99,,2013-01-08 03:53:00,
2013-01-07 23:02:00,37.0,26.0,30.42,SSW,205,0.0,-999.0,65,-99.99,,,-99.99,,2013-01-08 04:02:00,
2013-01-07 23:12:00,37.0,26.0,30.42,SSW,205,0.0,-999.0,65,-99.99,,,-99.99,,2013-01-08 04:12:00,
2013-01-07 23:22:00,37.0,27.0,30.43,SSW,205,0.0,-999.0,67,-99.99,,,-99.99,,2013-01-08 04:22:00,
2013-01-07 23:32:00,37.0,27.0,30.43,SSW,205,0.0,-999.0,67,-99.99,,,-99.99,,2013-01-08 04:32:00,
2013-01-07 23:42:00,37.0,27.0,30.43,SSW,205,0.0,-999.0,67,-99.99,,,-99.99,,2013-01-08 04:42:00,
2013-01-07 23:52:00,37.0,27.0,30.43,SSW,205,0.0,-999.0,67,-99.99,,,-99.99,,2013-01-08 04:52:00,